"Pseudo-MPEC" for C0QYE12

Created 2019 Jun 15 21:07:20 UT using Find_Orb

Click here for an explanation of pseudo-MPECs

 
 Astrometry: 
     C0QYE12  C2017 09 23l\/pvZvE4MJfb]9Dh36kus!?,Yq%TfP*hd'3x.7dJO#fMlSS\D(UF51
     C0QYE12  C2017 09 23FH;Ys_'*52rym`R!QK@kSfD,HiiWikrd6altPXm*K-\^x+erv8t%F51
     C0QYE12  C2017 09 23:cHq,9j/WZJIU![H+`/AfmsKXF!Q^v0S92JFKn/(O3,*hA,M(;nHF51
     C0QYE12  C2017 09 23.htA4uLLq6%eH*1sxtUM-;1P]=#?2rgA:;N7hTbX4M8Sf.jN$!$;F51
     C0QYE12  C2017 10 03s'Z+y!m=BA.dPpBdxH(jUDWh_BDc]qDqxr)ki%gwD=H@'FCcjxaGF51
     C0QYE12  C2017 10 03*`^NIuEHF!Fs^7b$`bA.(TK?x$'@1`Y9d.82U9XNRo6pNP2I^:l@F51
     C0QYE12  C2017 10 03EkxkkQQ*;`v'oj_wB/3l]d$`rfol2:jl+c^Astrometry6:B,T?3F51
     C0QYE12  C2017 10 03I/MF+64wMR!3.s#@f=0Xs9h9yvX2Fg9FrOredacted;4I@J6Owj,F51
     C0QYE12  C2017 11 06=V$(hU_sCxr@V_@wx@I(Ur*Ovt$s1kt5s=oNiL;F0@-S`V[o(?E$F51
     C0QYE12  C2017 11 06nIQ24BaI;X?DZbJ4#pDX6Q1PaFFi?EGgHxT]A;`6s%4-A^AETe#DF51
     C0QYE12  C2017 11 06phOWhO-tGOvE)Y@Dt1qSEXu*clickyt8w74?fEa;EHiFweEyf$swF51
     C0QYE12  C2017 11 06OLv-G,A?JrV8kv]R7(!(xENYDn]qE3DA@EH'gA+9QD+M[7d8DFkCF51
     C0QYE12  C2017 12 11tJhh-_3t]/;)WvJR'c)%HVa`@%R%waG)B/C0]?RcPN3(0w1iyg*_F51
     C0QYE12  C2017 12 11aclYiithereCk$eT!O7'nDkxrX\/kL/20Hst:,=^'`O_%]`UNA#rF51
     C0QYE12  C2017 12 11fkE\'TN-c`24lt/d!om:tP)%B-Q.cB-E$bM1%4Ofor7APP\RyPlNF51
     C0QYE12  C2017 12 11ZGW_id7Q'3_Mk!#hRrDNjuXL'2Vs`7t=P=\AocU.jck#C30;X^+SF51
     C0QYE12  C2019 05 21p24(h-BY\:0yvQH9`V^as)=NXNf']*o?LWb,9p8RGaEbq)#k2A.)F52
     C0QYE12  C2019 05 30p@W\89sB.9IeUU$1KqcLXbhOlktX3\;)#s?of98t,a:;prLuiiGGF52
     C0QYE12  C2019 05 30Q6Qw[%0nbKQ?xq4dd9Jg-e7%k2oZ4p1$!/_'?TCD_bCVPatWDx-cF52
     C0QYE12  C2019 05 306gTH\h6,:.cTi\b2ZGN#$XeR5?Qh':$nI*7=jk1x.eADM-%u5(SnF52
     C0QYE12  C2019 05 30G_]A6KQOJT0.EMx78Qy$rD+Z#o_3c-sG(/r^:.n2n9n_QE^/r\;RF52
     C0QYE12  C2019 06 06.27826 15 03 55.23 -07 29 58.3    ~667M 20.0 GVNEOCPG96
     C0QYE12  C2019 06 06.28342 15 03 54.34 -07 30 10.7    ~667M 21.0 GVNEOCPG96
     C0QYE12  C2019 06 06.28857 15 03 53.43 -07 30 24.0    ~667M 20.6 GVNEOCPG96
     C0QYE12  C2019 06 06.29372 15 03 52.52 -07 30 35.9    ~667M 20.2 GVNEOCPG96
     C0QYE12  C2019 06 06.34497 15 03 43.60 -07 32 41.1    ~668q       VNEOCPI52
     C0QYE12  C2019 06 06.34622 15 03 43.41 -07 32 43.9    ~668q 20.5 GVNEOCPI52
     C0QYE12  C2019 06 06.34747 15 03 43.17 -07 32 47.1    ~668q       VNEOCPI52
     C0QYE12  C2019 06 06.34872 15 03 42.96 -07 32 49.9    ~668q       VNEOCPI52
     C0QYE12  C2019 06 07.23105 15 01 15.07 -08 08 48.6    ~675q 19.7 GVNEOCPI52
     C0QYE12  C2019 06 07.23229 15 01 14.83 -08 08 51.8    ~675q 20.7 GVNEOCPI52
     C0QYE12  C2019 06 07.23354 15 01 14.58 -08 08 55.1    ~675q 20.7 GVNEOCPI52
     C0QYE12  C2019 06 07.23479 15 01 14.39 -08 08 56.9    ~675q 20.2 GVNEOCPI52
     C0QYE12  C2019 06 07_uGEce,62hy^L::ZbLPV?D;KjTZb6OnP%;uB[XlIWQOKEc4r9jk7F52
     C0QYE12  C2019 06 07`':QCPZ7Z_-U[3j9mq1BBV_0(xUt6;jqUAo_`@;mOw[tj;gaLd^\F52
     C0QYE12  C2019 06 07IH?#m8]cMYX35?-Pf6'G0rbR3hKK?tDAw73pNQC-/0B(qMo.TpLYF52
     C0QYE12  C2019 06 07p`Gf1L,_p']ao-6FPC/;@l2m;tG19Nj/h8PSd\95=Pv2]22g0v(PF52
     C0QYE12  C2019 06 08.18335 14 58 36.76 -08 47 46.2    ~691M 21.0 GVNEOCPI52
     C0QYE12  C2019 06 08.18628 14 58 36.29 -08 47 53.6    ~691M 21.0 GVNEOCPI52
     C0QYE12  C2019 06 08.18921 14 58 35.82 -08 48 00.6    ~691M 20.8 GVNEOCPI52
     C0QYE12 IC2019 06 08hoC)iD:\L_l:wBn;X-PO]'t9NaI$jSl9PO\uD?G)ea0u?qn.-d(9L01
     C0QYE12 KC2019 06 08iJ=3WdL.9c]](^@mFTdvM[AC/,K/y;3p(E4/S(r6?N`mO`!9\NO^L01
     C0QYE12 KC2019 06 08IrG/explanationx1.mxYuCG*POfo;/IDoJ7Rx@jml1k#t^USYyOL01
     C0QYE12  C2019 06 09.22750 14 55 45.13 -09 30 37.2    ~695q 21.2 GVNEOCPI52
     C0QYE12  C2019 06 09.22916 14 55 44.82 -09 30 41.9    ~695q 21.7 GVNEOCPI52
     C0QYE12  C2019 06 09.23249 14 55 44.33 -09 30 49.6    ~695q 21.0 GVNEOCPI52
     C0QYE12  C2019 06 09*@pSweb/WK/#AT%4FkYIe=XPWrnaV51/fPqf9Ok98I4F(Hls'o^xF52
     C0QYE12  C2019 06 09NVO_OC_21oxa@eIVnb%(..+U[fJ@eRvn8%78e$$4?TAt$RB@1J(sF52
     C0QYE12 KC2019 06 10/]Uvbu;:q/RQEX#*[B^Vpb.8\@=e9LHn0C=%oWF[V9YFtV*QLG9?H21
     C0QYE12 KC2019 06 10)Y\nMbqAe[?\`4cr4DNP]bP2Z=D[V=e6y3=^8[@W=ZERY$[/C_(aH21
     C0QYE12 KC2019 06 10tE_U!#tkVb.rFGS@XK!$+S]04GW`.rZSXj.[TkdM=qmvBHN78j^EH21
     C0QYE12  C2019 06 11.34984 14 50 04.78 -10 57 52.4    ~6B8q       VNEOCPI52
     C0QYE12  C2019 06 11.35276 14 50 04.35 -10 58 00.1    ~6B8q       VNEOCPI52
     C0QYE12  C2019 06 11.35568 14 50 03.81 -10 58 07.5    ~6B8q       VNEOCPI52

Station data:
(F51) Pan-STARRS 1, Haleakala  (N20.707235 W156.255910)  US/Hawaii.
   Observers N. Primak, A. Schultz, S. Watters, J. Thiel, T. Goggia. Measurer
   PS1 Science Consortium. 1.8-m Ritchey-Chrétien + CCD.
(F52) Pan-STARRS 2, Haleakala  (N20.707384 W156.255910)  US/Hawaii. 1.8-m
   Ritchey-Chrétien + CCD.
(G96) Mt. Lemmon Survey  (N32.442754 W110.788720)  US/Arizona.  Observers T.
   A. Pruyne, B. M. Africano, E. J. Christensen, G. A. Farneth, D. C. Fuls,
   A. R. Gibbs, A. D. Grauer, H. Groeller, J. A. Johnson, R. A. Kowalski, S.
   M. Larson, G. J. Leonard, R. G. Matheny, R. L. Seaman, F. C. Shelly. 1.5-m
   reflector + 10K CCD.
(H21) Astronomical Research Observatory, Westfield  (N39.483057 W87.968270)
   US/Illinois. 0.76-m f/3.0 astrograph + CCD.
(I52) Steward Observatory, Mt. Lemmon Station  (N32.442547 W110.788920)
   US/Arizona.  Observers T. A. Pruyne, B. M. Africano, E. J. Christensen, G.
   A. Farneth, D. C. Fuls, A. R. Gibbs, A. D. Grauer, H. Groeller, J. A.
   Johnson, R. A. Kowalski, S. M. Larson, G. J. Leonard, R. G. Matheny, R. L.
   Seaman, F. C. Shelly. 1.0-m reflector + CCD.
(L01) Višnjan Observatory, Tičan  (N45.290900 E13.749300)  Croatia.
   Observers K. Korlević, E. Pettarin. Measurer E. Pettarin. 1.0-m f/2.9
   reflector + CCD.

Orbital elements:  C0QYE12
   Perihelion 2019 Oct 5.443828 +/- 0.000806 TT = 10:39:06 (JD 2458761.943828)
Epoch 2019 Jun 11.0 TT = JDT 2458645.5   Earth MOID: 0.4381   Ma: 0.0094
M 308.27502795 +/- 0.00030          (J2000 ecliptic)          AutoNEOCP
n   0.44420535 +/- 4.52e-7          Peri.  255.17619 +/- 0.00024
a   1.70116663 +/- 1.15e-6          Node    69.65459 +/- 0.000052
e   0.2520312 +/- 1.13e-6           Incl.   35.02823 +/- 0.00013
P   2.22/810.42d           H 20.6   G  0.15   U  3.0  
q 1.27241953 +/- 2.79e-6    Q 2.12991373 +/- 5.22e-7
From 54 observations 2017 Sept. 23-2019 June 11; mean residual 0".29
Residuals in arcseconds: 
170923 F51  .01-  .06+    190530 F52  .05-  .15-    190607 F52  .01-  .26+    
170923 F51  .02+  .31+    190530 F52  .14+  .16+    190608 I52  .34-  .10-    
170923 F51  .12-  .25-    190530 F52  .02+  .05-    190608 I52  .11+  .28-    
170923 F51  .14-  .11-    190606 G96  .00   .10+    190608 I52  .56+  .07-    
171003 F51  .17+  .09+    190606 G96  .15+  .27+    190608 L01  1.1-  .29-    
171003 F51  .16-  .14-    190606 G96  .02-  .49-    190608 L01  .37-  .11-    
171003 F51  .15+  .04+    190606 G96  .20-  .15+    190608 L01  .00   .37+    
171003 F51  .05+  .15-    190606 I52  .35-  .32-    190609 I52  .11+  .16+    
171106 F51  .14-  .11-    190606 I52  .04+  .08-    190609 I52  .34-  .45-    
171106 F51  .06+  .03-    190606 I52  .31-  .24-    190609 I52  .70+  .06+    
171106 F51  .06-  .32+    190606 I52  .21-  .00     190609 F52  .26+  .02-    
171106 F51  .16+  .14-    190607 I52  .59+  .48-    190609 F52  .22-  .09-    
171211 F51  .20+  .09+    190607 I52  .21+  .64-    190610 H21  .29+  .31+    
171211 F51  .01-  .21-    190607 I52  .30-  .88-    190610 H21  .10+  .64+    
171211 F51  .03-  .08-    190607 I52  .09+  .38+    190610 H21  .11+  .18+    
171211 F51  .12+  .06+    190607 F52  .03-  .12+    190611 I52  .18+  .49+    
190521 F52  .19-  .28+    190607 F52  .19+  .06-    190611 I52  .75+  .04-    
190530 F52  .11+  .06+    190607 F52  .16-  .37-    190611 I52  .31-  .27-    

Ephemerides (geocentric):
Date (UTC) HH   RA              Dec         delta   r     elong  mag " sig PA
---- -- -- --  -------------   -----------  ------ ------ -----  --- ---- ---
2019 06 15 21  14 38 46.765   -14 02 43.19  .58758 1.5022 137.5 21.5 .118  26
2019 06 15 22  14 38 40.838   -14 04 24.44  .58770 1.5021 137.4 21.5 .119  26
2019 06 15 23  14 38 34.917   -14 06 05.67  .58782 1.5019 137.4 21.5 .120  26
2019 06 16 00  14 38 29.002   -14 07 46.87  .58794 1.5018 137.3 21.5 .120  26
2019 06 16 01  14 38 23.093   -14 09 28.05  .58806 1.5017 137.3 21.5 .121  26
2019 06 16 02  14 38 17.191   -14 11 09.21  .58818 1.5015 137.2 21.5 .122  26
2019 06 16 03  14 38 11.294   -14 12 50.34  .58831 1.5014 137.1 21.5 .122  26
2019 06 16 04  14 38 05.405   -14 14 31.45  .58843 1.5012 137.1 21.5 .123  26
2019 06 16 05  14 37 59.521   -14 16 12.53  .58855 1.5011 137.0 21.5 .123  26
2019 06 16 06  14 37 53.644   -14 17 53.59  .58867 1.5010 137.0 21.5 .124  26
2019 06 16 07  14 37 47.773   -14 19 34.62  .58880 1.5008 136.9 21.5 .125  26
2019 06 16 08  14 37 41.908   -14 21 15.63  .58892 1.5007 136.9 21.5 .125  26
2019 06 16 09  14 37 36.049   -14 22 56.62  .58904 1.5005 136.8 21.5 .126  26
2019 06 16 10  14 37 30.197   -14 24 37.58  .58917 1.5004 136.8 21.5 .127  26
2019 06 16 11  14 37 24.352   -14 26 18.51  .58929 1.5003 136.7 21.5 .127  26
2019 06 16 12  14 37 18.512   -14 27 59.42  .58942 1.5001 136.7 21.5 .128  26
2019 06 16 13  14 37 12.679   -14 29 40.30  .58954 1.5000 136.6 21.5 .129  26
2019 06 16 14  14 37 06.852   -14 31 21.16  .58967 1.4999 136.6 21.5 .129  26
2019 06 16 15  14 37 01.032   -14 33 01.99  .58980 1.4997 136.5 21.5 .130  26
2019 06 16 16  14 36 55.218   -14 34 42.80  .58992 1.4996 136.5 21.5 .130  26
2019 06 16 17  14 36 49.410   -14 36 23.58  .59005 1.4994 136.4 21.5 .131  26
2019 06 16 18  14 36 43.609   -14 38 04.34  .59018 1.4993 136.4 21.5 .132  26
2019 06 16 19  14 36 37.814   -14 39 45.06  .59031 1.4992 136.3 21.5 .132  26
2019 06 16 20  14 36 32.026   -14 41 25.76  .59044 1.4990 136.2 21.5 .133  26
2019 06 16 21  14 36 26.244   -14 43 06.44  .59056 1.4989 136.2 21.5 .134  26
2019 06 16 22  14 36 20.468   -14 44 47.09  .59069 1.4987 136.1 21.5 .134  26
2019 06 16 23  14 36 14.699   -14 46 27.71  .59082 1.4986 136.1 21.6 .135  26
2019 06 17 00  14 36 08.936   -14 48 08.30  .59095 1.4985 136.0 21.6 .136  26
2019 06 17 01  14 36 03.180   -14 49 48.87  .59108 1.4983 136.0 21.6 .136  26
2019 06 17 02  14 35 57.430   -14 51 29.41  .59121 1.4982 135.9 21.6 .137  26
2019 06 17 03  14 35 51.687   -14 53 09.92  .59135 1.4981 135.9 21.6 .138  26
2019 06 17 04  14 35 45.950   -14 54 50.41  .59148 1.4979 135.8 21.6 .138  26
2019 06 17 05  14 35 40.220   -14 56 30.86  .59161 1.4978 135.8 21.6 .139  26
2019 06 17 06  14 35 34.496   -14 58 11.29  .59174 1.4976 135.7 21.6 .139  26
2019 06 17 07  14 35 28.778   -14 59 51.69  .59187 1.4975 135.7 21.6 .140  26
2019 06 17 08  14 35 23.067   -15 01 32.07  .59201 1.4974 135.6 21.6 .141  26
2019 06 17 09  14 35 17.363   -15 03 12.41  .59214 1.4972 135.6 21.6 .141  26
2019 06 17 10  14 35 11.665   -15 04 52.73  .59228 1.4971 135.5 21.6 .142  26
2019 06 17 11  14 35 05.973   -15 06 33.02  .59241 1.4969 135.5 21.6 .143  26
2019 06 17 12  14 35 00.289   -15 08 13.28  .59254 1.4968 135.4 21.6 .143  26
2019 06 17 13  14 34 54.610   -15 09 53.51  .59268 1.4967 135.3 21.6 .144  26
2019 06 17 14  14 34 48.938   -15 11 33.71  .59281 1.4965 135.3 21.6 .145  26
2019 06 17 15  14 34 43.273   -15 13 13.88  .59295 1.4964 135.2 21.6 .145  26
2019 06 17 16  14 34 37.614   -15 14 54.03  .59309 1.4963 135.2 21.6 .146  26
2019 06 17 17  14 34 31.962   -15 16 34.14  .59322 1.4961 135.1 21.6 .146  26
2019 06 17 18  14 34 26.317   -15 18 14.23  .59336 1.4960 135.1 21.6 .147  26
2019 06 17 19  14 34 20.678   -15 19 54.28  .59350 1.4958 135.0 21.6 .148  26
2019 06 17 20  14 34 15.045   -15 21 34.31  .59364 1.4957 135.0 21.6 .148  26